Time,TemperatureF,DewpointF,PressureIn,WindDirection,WindDirectionDegrees,WindSpeedMPH,WindSpeedGustMPH,Humidity,HourlyPrecipIn,Conditions,Clouds,dailyrainin,SoftwareType,DateUTC
2013-02-04 00:02:00,26.2,13.8,29.95,SE,135,10.4,10.4,59,0.00,OVC,,0.00,WeatherDisplay:10.37,2013-02-04 05:02:00,
2013-02-04 00:03:00,26.2,13.8,29.94,West,270,8.1,8.1,59,0.00,OVC,,0.00,WeatherDisplay:10.37,2013-02-04 05:03:00,
2013-02-04 00:04:00,26.4,14.0,29.94,South,180,8.1,8.1,59,0.00,OVC,,0.00,WeatherDisplay:10.37,2013-02-04 05:04:00,
2013-02-04 00:09:00,26.2,13.8,29.94,South,180,12.7,12.7,59,0.00,OVC,,0.00,WeatherDisplay:10.37,2013-02-04 05:09:00,
2013-02-04 00:14:00,26.1,13.7,29.94,South,180,10.4,10.4,59,0.00,OVC,,0.00,WeatherDisplay:10.37,2013-02-04 05:14:00,
2013-02-04 00:19:00,25.9,13.5,29.95,SW,225,9.2,9.2,59,0.00,OVC,,0.00,WeatherDisplay:10.37,2013-02-04 05:19:00,
2013-02-04 00:24:00,25.7,13.3,29.95,South,180,12.7,12.7,59,0.00,OVC,,0.00,WeatherDisplay:10.37,2013-02-04 05:24:00,
2013-02-04 00:29:00,25.5,13.2,29.95,South,180,12.7,12.7,59,0.00,OVC,,0.00,WeatherDisplay:10.37,2013-02-04 05:29:00,
2013-02-04 00:34:00,25.3,13.0,29.95,South,180,8.1,8.1,59,0.00,OVC,,0.00,WeatherDisplay:10.37,2013-02-04 05:34:00,
2013-02-04 00:39:00,25.2,13.2,29.95,SW,225,11.5,11.5,60,0.00,OVC,,0.00,WeatherDisplay:10.37,2013-02-04 05:39:00,
2013-02-04 00:44:00,25.0,13.0,29.95,SW,225,6.9,6.9,60,0.00,OVC,,0.00,WeatherDisplay:10.37,2013-02-04 05:44:00,
2013-02-04 00:49:00,25.0,13.4,29.95,South,180,10.4,10.4,61,0.00,OVC,,0.00,WeatherDisplay:10.37,2013-02-04 05:49:00,
2013-02-04 00:54:00,24.8,13.6,29.95,South,180,8.1,8.1,62,0.00,OVC,,0.00,WeatherDisplay:10.37,2013-02-04 05:54:00,
2013-02-04 00:59:00,24.8,13.6,29.95,SW,225,6.9,6.9,62,0.00,OVC,,0.00,WeatherDisplay:10.37,2013-02-04 05:59:00,
2013-02-04 01:04:00,24.6,13.4,29.96,SW,225,4.6,4.6,62,0.00,OVC,,0.00,WeatherDisplay:10.37,2013-02-04 06:04:00,
2013-02-04 01:09:00,24.4,13.6,29.96,South,180,4.6,4.6,63,0.00,OVC,,0.00,WeatherDisplay:10.37,2013-02-04 06:09:00,
2013-02-04 01:14:00,24.3,13.5,29.96,South,180,5.8,5.8,63,0.00,OVC,,0.00,WeatherDisplay:10.37,2013-02-04 06:14:00,
2013-02-04 01:19:00,24.3,13.1,29.97,SW,225,5.8,5.8,62,0.00,SCT,,0.00,WeatherDisplay:10.37,2013-02-04 06:19:00,
2013-02-04 01:24:00,24.1,12.9,29.97,South,180,4.6,4.6,62,0.00,SCT,,0.00,WeatherDisplay:10.37,2013-02-04 06:24:00,
2013-02-04 01:29:00,23.9,12.4,29.96,South,180,6.0,6.0,61,0.00,SCT,,0.00,WeatherDisplay:10.37,2013-02-04 06:29:00,
2013-02-04 01:34:00,23.9,12.8,29.96,SW,225,6.9,6.9,62,0.00,SCT,,0.00,WeatherDisplay:10.37,2013-02-04 06:34:00,
2013-02-04 01:39:00,23.9,12.4,29.96,SW,225,8.1,8.1,61,0.00,SCT,,0.00,WeatherDisplay:10.37,2013-02-04 06:39:00,
2013-02-04 01:44:00,23.9,12.4,29.96,South,180,10.4,10.4,61,0.00,SCT,,0.00,WeatherDisplay:10.37,2013-02-04 06:44:00,
2013-02-04 01:49:00,23.7,11.8,29.96,NW,315,5.8,6.0,60,0.00,SCT,,0.00,WeatherDisplay:10.37,2013-02-04 06:49:00,
2013-02-04 01:54:00,23.7,12.2,29.96,SW,225,5.8,5.8,61,0.00,SCT,,0.00,WeatherDisplay:10.37,2013-02-04 06:54:00,
2013-02-04 01:59:00,23.7,12.2,29.96,SW,225,9.2,9.2,61,0.00,SCT,,0.00,WeatherDisplay:10.37,2013-02-04 06:59:00,
2013-02-04 02:04:00,23.5,12.1,29.96,South,180,5.8,5.8,61,0.00,OVC,,0.00,WeatherDisplay:10.37,2013-02-04 07:04:00,
2013-02-04 02:09:00,23.5,12.1,29.97,South,180,6.9,6.9,61,0.00,OVC,,0.00,WeatherDisplay:10.37,2013-02-04 07:09:00,
2013-02-04 02:14:00,23.5,12.1,29.97,SW,225,9.2,9.2,61,0.00,OVC,,0.00,WeatherDisplay:10.37,2013-02-04 07:14:00,
2013-02-04 02:19:00,23.5,12.1,29.97,SW,225,6.9,6.9,61,0.00,OVC,,0.00,WeatherDisplay:10.37,2013-02-04 07:19:00,
2013-02-04 02:24:00,23.4,11.9,29.97,SW,225,5.8,5.8,61,0.00,OVC,,0.00,WeatherDisplay:10.37,2013-02-04 07:24:00,
2013-02-04 02:29:00,23.4,12.2,29.97,SW,225,5.8,5.8,62,0.00,OVC,,0.00,WeatherDisplay:10.37,2013-02-04 07:29:00,
2013-02-04 02:34:00,23.4,11.9,29.97,SW,225,8.1,8.1,61,0.00,OVC,,0.00,WeatherDisplay:10.37,2013-02-04 07:34:00,
2013-02-04 02:39:00,23.4,11.9,29.97,South,180,8.1,8.1,61,0.00,OVC,,0.00,WeatherDisplay:10.37,2013-02-04 07:39:00,
2013-02-04 02:44:00,23.4,12.2,29.97,South,180,4.6,4.6,62,0.00,OVC,,0.00,WeatherDisplay:10.37,2013-02-04 07:44:00,
2013-02-04 02:49:00,23.4,12.2,29.97,SW,225,3.5,3.5,62,0.00,OVC,,0.00,WeatherDisplay:10.37,2013-02-04 07:49:00,
2013-02-04 02:54:00,23.4,12.2,29.98,SW,225,8.1,8.1,62,0.00,OVC,,0.00,WeatherDisplay:10.37,2013-02-04 07:54:00,
2013-02-04 02:59:00,23.5,12.8,29.97,SW,225,4.6,4.6,63,0.00,OVC,,0.00,WeatherDisplay:10.37,2013-02-04 07:59:00,
2013-02-04 03:04:00,23.5,12.4,29.97,South,180,5.8,5.8,62,0.00,OVC,,0.00,WeatherDisplay:10.37,2013-02-04 08:04:00,
2013-02-04 03:09:00,23.5,12.1,29.98,South,180,5.8,5.8,61,0.00,OVC,,0.00,WeatherDisplay:10.37,2013-02-04 08:09:00,
2013-02-04 03:14:00,23.7,12.6,29.97,SW,225,9.2,9.2,62,0.00,OVC,,0.00,WeatherDisplay:10.37,2013-02-04 08:14:00,
2013-02-04 03:19:00,23.9,12.4,29.98,South,180,10.4,10.4,61,0.00,OVC,,0.00,WeatherDisplay:10.37,2013-02-04 08:19:00,
2013-02-04 03:24:00,23.9,12.0,29.97,South,180,8.1,8.1,60,0.00,OVC,,0.00,WeatherDisplay:10.37,2013-02-04 08:24:00,
2013-02-04 03:29:00,23.9,12.4,29.97,SW,225,5.8,5.8,61,0.00,OVC,,0.00,WeatherDisplay:10.37,2013-02-04 08:29:00,
2013-02-04 03:34:00,23.7,12.2,29.96,South,180,8.1,8.1,61,0.00,OVC,,0.00,WeatherDisplay:10.37,2013-02-04 08:34:00,
2013-02-04 03:39:00,23.7,12.2,29.97,SW,225,6.9,6.9,61,0.00,OVC,,0.00,WeatherDisplay:10.37,2013-02-04 08:39:00,
2013-02-04 03:44:00,23.7,12.2,29.97,South,180,5.8,5.8,61,0.00,OVC,,0.00,WeatherDisplay:10.37,2013-02-04 08:44:00,
2013-02-04 03:49:00,23.7,12.2,29.97,West,270,3.5,3.5,61,0.00,OVC,,0.00,WeatherDisplay:10.37,2013-02-04 08:49:00,
2013-02-04 03:54:00,23.7,12.6,29.97,SW,225,8.1,8.1,62,0.00,OVC,,0.00,WeatherDisplay:10.37,2013-02-04 08:54:00,
2013-02-04 03:59:00,23.5,12.4,29.97,SE,135,6.9,6.9,62,0.00,OVC,,0.00,WeatherDisplay:10.37,2013-02-04 08:59:00,
2013-02-04 04:04:00,23.7,12.2,29.97,South,180,6.9,6.9,61,0.00,OVC,,0.00,WeatherDisplay:10.37,2013-02-04 09:04:00,
2013-02-04 04:09:00,23.7,12.6,29.97,South,180,5.8,5.8,62,0.00,OVC,,0.00,WeatherDisplay:10.37,2013-02-04 09:09:00,
2013-02-04 04:14:00,23.5,12.4,29.97,SW,225,5.8,5.8,62,0.00,OVC,,0.00,WeatherDisplay:10.37,2013-02-04 09:14:00,
2013-02-04 04:19:00,23.5,12.4,29.98,SW,225,11.5,11.5,62,0.00,OVC,,0.00,WeatherDisplay:10.37,2013-02-04 09:19:00,
2013-02-04 04:24:00,23.7,12.2,29.97,West,270,9.2,9.2,61,0.00,OVC,,0.00,WeatherDisplay:10.37,2013-02-04 09:24:00,
2013-02-04 04:29:00,23.7,12.2,29.98,SW,225,6.9,6.9,61,0.00,OVC,,0.00,WeatherDisplay:10.37,2013-02-04 09:29:00,
2013-02-04 04:34:00,23.5,12.1,29.97,SW,225,5.8,5.8,61,0.00,OVC,,0.00,WeatherDisplay:10.37,2013-02-04 09:34:00,
2013-02-04 04:39:00,23.4,11.9,29.97,West,270,3.5,3.5,61,0.00,OVC,,0.00,WeatherDisplay:10.37,2013-02-04 09:39:00,
2013-02-04 04:44:00,23.4,11.9,29.97,SW,225,5.8,5.8,61,0.00,OVC,,0.00,WeatherDisplay:10.37,2013-02-04 09:44:00,
2013-02-04 04:49:00,23.4,12.2,29.98,SW,225,2.3,2.3,62,0.00,OVC,,0.00,WeatherDisplay:10.37,2013-02-04 09:49:00,
2013-02-04 04:54:00,23.2,12.1,29.98,SW,225,3.5,3.5,62,0.00,OVC,,0.00,WeatherDisplay:10.37,2013-02-04 09:54:00,
2013-02-04 04:59:00,23.0,12.3,29.98,SW,225,2.3,2.3,63,0.00,OVC,,0.00,WeatherDisplay:10.37,2013-02-04 09:59:00,
2013-02-04 05:04:00,23.0,12.3,29.98,SW,225,3.5,3.5,63,0.00,OVC,,0.00,WeatherDisplay:10.37,2013-02-04 10:04:00,
2013-02-04 05:09:00,23.0,12.3,29.97,SE,135,3.5,3.5,63,0.00,OVC,,0.00,WeatherDisplay:10.37,2013-02-04 10:09:00,
2013-02-04 05:14:00,23.0,12.3,29.98,South,180,4.6,5.4,63,0.00,OVC,,0.00,WeatherDisplay:10.37,2013-02-04 10:14:00,
2013-02-04 05:19:00,23.2,12.4,29.98,SW,225,9.2,9.2,63,0.00,BKN,,0.00,WeatherDisplay:10.37,2013-02-04 10:19:00,
2013-02-04 05:24:00,23.2,12.4,29.98,West,270,6.9,6.9,63,0.00,BKN,,0.00,WeatherDisplay:10.37,2013-02-04 10:24:00,
2013-02-04 05:29:00,23.2,12.1,29.98,South,180,5.8,5.8,62,0.00,BKN,,0.00,WeatherDisplay:10.37,2013-02-04 10:29:00,
2013-02-04 05:34:00,23.4,12.2,29.98,SW,225,6.9,6.9,62,0.00,BKN,,0.00,WeatherDisplay:10.37,2013-02-04 10:34:00,
2013-02-04 05:39:00,23.4,12.2,29.98,SE,135,8.1,8.1,62,0.00,BKN,,0.00,WeatherDisplay:10.37,2013-02-04 10:39:00,
2013-02-04 05:44:00,23.2,12.1,29.99,South,180,3.5,3.5,62,0.00,BKN,,0.00,WeatherDisplay:10.37,2013-02-04 10:44:00,
2013-02-04 05:49:00,23.2,12.1,29.99,ENE,68,2.3,2.3,62,0.00,BKN,,0.00,WeatherDisplay:10.37,2013-02-04 10:49:00,
2013-02-04 05:54:00,23.2,12.1,29.99,SW,225,5.8,5.8,62,0.00,BKN,,0.00,WeatherDisplay:10.37,2013-02-04 10:54:00,
2013-02-04 05:59:00,23.4,12.2,30.00,South,180,5.8,5.8,62,0.00,BKN,,0.00,WeatherDisplay:10.37,2013-02-04 10:59:00,
2013-02-04 06:04:00,23.4,12.2,30.00,SW,225,4.6,4.6,62,0.00,BKN,,0.00,WeatherDisplay:10.37,2013-02-04 11:04:00,
2013-02-04 06:09:00,23.4,12.2,30.00,South,180,5.8,5.8,62,0.00,BKN,,0.00,WeatherDisplay:10.37,2013-02-04 11:09:00,
2013-02-04 06:14:00,23.4,11.9,30.00,North,0,1.1,0.0,61,0.00,BKN,,0.00,WeatherDisplay:10.37,2013-02-04 11:14:00,
2013-02-04 06:19:00,23.4,12.2,30.01,NW,315,1.1,0.0,62,0.00,BKN,,0.00,WeatherDisplay:10.37,2013-02-04 11:19:00,
2013-02-04 06:24:00,23.4,12.6,30.01,North,0,1.1,0.0,63,0.00,BKN,,0.00,WeatherDisplay:10.37,2013-02-04 11:24:00,
2013-02-04 06:29:00,23.2,12.4,30.01,North,0,1.1,0.0,63,0.00,BKN,,0.00,WeatherDisplay:10.37,2013-02-04 11:29:00,
2013-02-04 06:34:00,23.2,12.8,30.01,North,0,1.1,0.0,64,0.00,BKN,,0.00,WeatherDisplay:10.37,2013-02-04 11:34:00,
2013-02-04 06:39:00,23.2,12.8,30.00,North,0,1.1,1.1,64,0.00,BKN,,0.00,WeatherDisplay:10.37,2013-02-04 11:39:00,
2013-02-04 06:44:00,23.2,12.8,30.01,NE,45,1.1,1.1,64,0.00,BKN,,0.00,WeatherDisplay:10.37,2013-02-04 11:44:00,
2013-02-04 06:49:00,23.0,12.6,30.01,North,0,0.0,0.0,64,0.00,BKN,,0.00,WeatherDisplay:10.37,2013-02-04 11:49:00,
2013-02-04 06:54:00,23.0,12.6,30.01,SW,225,2.3,2.3,64,0.00,BKN,,0.00,WeatherDisplay:10.37,2013-02-04 11:54:00,
2013-02-04 06:59:00,22.8,12.8,30.01,West,270,1.1,0.0,65,0.00,BKN,,0.00,WeatherDisplay:10.37,2013-02-04 11:59:00,
2013-02-04 07:04:00,22.8,13.2,30.02,SE,135,1.1,0.0,66,0.00,OVC,,0.00,WeatherDisplay:10.37,2013-02-04 12:04:00,
2013-02-04 07:09:00,22.6,13.0,30.02,SE,135,0.0,0.0,66,0.00,OVC,,0.00,WeatherDisplay:10.37,2013-02-04 12:09:00,
2013-02-04 07:14:00,22.6,13.3,30.02,North,0,2.3,2.3,67,0.00,OVC,,0.00,WeatherDisplay:10.37,2013-02-04 12:14:00,
2013-02-04 07:19:00,22.6,13.0,30.02,NE,45,1.1,0.0,66,0.00,OVC,,0.00,WeatherDisplay:10.37,2013-02-04 12:19:00,
2013-02-04 07:24:00,22.8,13.2,30.02,South,180,5.8,5.8,66,0.00,OVC,,0.00,WeatherDisplay:10.37,2013-02-04 12:24:00,
2013-02-04 07:29:00,23.0,13.0,30.03,NE,45,2.3,0.0,65,0.00,OVC,,0.00,WeatherDisplay:10.37,2013-02-04 12:29:00,
2013-02-04 07:34:00,23.2,13.5,30.03,NE,45,1.1,0.0,66,0.00,OVC,,0.00,WeatherDisplay:10.37,2013-02-04 12:34:00,
2013-02-04 07:39:00,23.2,13.8,30.04,NW,315,2.3,2.3,67,0.00,OVC,,0.00,WeatherDisplay:10.37,2013-02-04 12:39:00,
2013-02-04 07:44:00,23.4,14.0,30.04,NE,45,3.5,3.5,67,0.00,OVC,,0.00,WeatherDisplay:10.37,2013-02-04 12:44:00,
2013-02-04 07:49:00,23.5,14.2,30.04,North,0,2.3,0.0,67,0.00,OVC,,0.00,WeatherDisplay:10.37,2013-02-04 12:49:00,
2013-02-04 07:54:00,23.7,14.4,30.04,NW,315,1.1,0.0,67,0.00,OVC,,0.00,WeatherDisplay:10.37,2013-02-04 12:54:00,
2013-02-04 07:59:00,23.9,14.2,30.05,SW,225,2.3,2.3,66,0.00,OVC,,0.00,WeatherDisplay:10.37,2013-02-04 12:59:00,
2013-02-04 08:04:00,24.1,13.3,30.05,South,180,3.5,3.5,63,0.00,OVC,,0.00,WeatherDisplay:10.37,2013-02-04 13:04:00,
2013-02-04 08:09:00,24.3,13.5,30.05,SW,225,3.5,3.5,63,0.00,OVC,,0.00,WeatherDisplay:10.37,2013-02-04 13:09:00,
2013-02-04 08:14:00,24.3,12.7,30.05,South,180,6.9,6.9,61,0.00,OVC,,0.00,WeatherDisplay:10.37,2013-02-04 13:14:00,
2013-02-04 08:19:00,24.8,12.9,30.04,South,180,6.9,6.9,60,0.00,OVC,,0.00,WeatherDisplay:10.37,2013-02-04 13:19:00,
2013-02-04 08:24:00,25.2,12.8,30.04,SE,135,6.0,6.0,59,0.00,OVC,,0.00,WeatherDisplay:10.37,2013-02-04 13:24:00,
2013-02-04 08:29:00,25.5,12.8,30.04,SW,225,5.8,5.8,58,0.00,OVC,,0.00,WeatherDisplay:10.37,2013-02-04 13:29:00,
2013-02-04 08:34:00,25.5,12.8,30.05,West,270,5.8,5.8,58,0.00,OVC,,0.00,WeatherDisplay:10.37,2013-02-04 13:34:00,
2013-02-04 08:39:00,25.5,12.8,30.05,South,180,5.8,5.8,58,0.00,OVC,,0.00,WeatherDisplay:10.37,2013-02-04 13:39:00,
2013-02-04 08:44:00,25.9,13.1,30.05,South,180,5.8,5.8,58,0.00,OVC,,0.00,WeatherDisplay:10.37,2013-02-04 13:44:00,
2013-02-04 08:49:00,26.1,12.9,30.05,SW,225,8.1,8.1,57,0.00,OVC,,0.00,WeatherDisplay:10.37,2013-02-04 13:49:00,
2013-02-04 08:54:00,26.4,12.8,30.05,South,180,5.8,5.8,56,0.00,OVC,,0.00,WeatherDisplay:10.37,2013-02-04 13:54:00,
2013-02-04 08:59:00,26.6,12.6,30.05,SW,225,8.1,8.1,55,0.00,OVC,,0.00,WeatherDisplay:10.37,2013-02-04 13:59:00,
2013-02-04 09:04:00,27.0,13.3,30.05,SW,225,5.8,5.8,56,0.00,OVC,,0.00,WeatherDisplay:10.37,2013-02-04 14:04:00,
2013-02-04 09:09:00,27.5,13.4,30.05,South,180,5.8,5.8,55,0.00,OVC,,0.00,WeatherDisplay:10.37,2013-02-04 14:09:00,
2013-02-04 09:14:00,27.3,13.3,30.05,South,180,5.8,5.8,55,0.00,OVC,,0.00,WeatherDisplay:10.37,2013-02-04 14:14:00,
2013-02-04 09:19:00,27.7,13.6,30.05,SW,225,4.6,4.6,55,0.00,OVC,,0.00,WeatherDisplay:10.37,2013-02-04 14:19:00,
2013-02-04 09:24:00,27.9,13.3,30.05,South,180,8.1,8.1,54,0.00,OVC,,0.00,WeatherDisplay:10.37,2013-02-04 14:24:00,
2013-02-04 09:29:00,28.2,14.1,30.06,South,180,4.6,4.6,55,0.00,OVC,,0.00,WeatherDisplay:10.37,2013-02-04 14:29:00,
2013-02-04 09:34:00,28.4,13.9,30.05,SSW,202,5.8,5.8,54,0.00,OVC,,0.00,WeatherDisplay:10.37,2013-02-04 14:34:00,
2013-02-04 09:39:00,28.4,14.3,30.05,SW,225,5.8,5.8,55,0.00,OVC,,0.00,WeatherDisplay:10.37,2013-02-04 14:39:00,
2013-02-04 09:44:00,28.9,14.8,30.05,South,180,3.5,3.5,55,0.00,OVC,,0.00,WeatherDisplay:10.37,2013-02-04 14:44:00,
2013-02-04 09:49:00,29.1,14.9,30.06,SW,225,4.6,4.6,55,0.00,OVC,,0.00,WeatherDisplay:10.37,2013-02-04 14:49:00,
2013-02-04 09:54:00,29.7,15.0,30.05,South,180,3.5,3.5,54,0.00,OVC,,0.00,WeatherDisplay:10.37,2013-02-04 14:54:00,
2013-02-04 09:59:00,29.7,14.6,30.05,SW,225,6.9,6.9,53,0.00,OVC,,0.00,WeatherDisplay:10.37,2013-02-04 14:59:00,
2013-02-04 10:04:00,29.7,14.6,30.05,South,180,5.8,5.8,53,0.00,CLR,,0.00,WeatherDisplay:10.37,2013-02-04 15:04:00,
2013-02-04 10:09:00,29.8,14.8,30.05,South,180,4.6,4.6,53,0.00,CLR,,0.00,WeatherDisplay:10.37,2013-02-04 15:09:00,
2013-02-04 10:14:00,29.5,14.0,30.04,South,180,4.6,4.6,52,0.00,CLR,,0.00,WeatherDisplay:10.37,2013-02-04 15:14:00,
2013-02-04 10:19:00,29.8,14.8,30.04,South,180,4.6,4.6,53,0.00,CLR,,0.00,WeatherDisplay:10.37,2013-02-04 15:19:00,
2013-02-04 10:24:00,30.4,15.7,30.04,South,180,3.5,3.5,54,0.00,CLR,,0.00,WeatherDisplay:10.37,2013-02-04 15:24:00,
2013-02-04 10:29:00,30.9,15.3,30.04,SW,225,3.5,3.5,52,0.00,CLR,,0.00,WeatherDisplay:10.37,2013-02-04 15:29:00,
2013-02-04 10:34:00,30.9,15.3,30.04,SSW,202,5.4,5.4,52,0.00,CLR,,0.00,WeatherDisplay:10.37,2013-02-04 15:34:00,
2013-02-04 10:39:00,31.1,15.9,30.04,South,180,3.5,3.5,53,0.00,CLR,,0.00,WeatherDisplay:10.37,2013-02-04 15:39:00,
2013-02-04 10:44:00,31.5,15.8,30.04,SE,135,3.5,3.5,52,0.00,CLR,,0.00,WeatherDisplay:10.37,2013-02-04 15:44:00,
2013-02-04 10:49:00,32.2,16.1,30.03,SE,135,3.5,3.5,51,0.00,CLR,,0.00,WeatherDisplay:10.37,2013-02-04 15:49:00,
2013-02-04 10:54:00,32.5,15.9,30.03,NE,45,4.6,0.0,50,0.00,CLR,,0.00,WeatherDisplay:10.37,2013-02-04 15:54:00,
2013-02-04 10:59:00,32.5,15.9,30.03,NW,315,3.5,3.5,50,0.00,CLR,,0.00,WeatherDisplay:10.37,2013-02-04 15:59:00,
2013-02-04 11:04:00,32.4,15.8,30.03,NE,45,4.6,0.0,50,0.00,CLR,,0.00,WeatherDisplay:10.37,2013-02-04 16:04:00,
2013-02-04 11:09:00,32.7,16.6,30.03,NE,45,3.5,3.5,51,0.00,CLR,,0.00,WeatherDisplay:10.37,2013-02-04 16:09:00,
2013-02-04 11:14:00,33.4,16.8,30.02,SE,135,2.3,2.3,50,0.00,CLR,,0.00,WeatherDisplay:10.37,2013-02-04 16:14:00,
2013-02-04 11:19:00,34.0,16.8,30.02,SW,225,3.5,3.5,49,0.00,BKN,,0.00,WeatherDisplay:10.37,2013-02-04 16:19:00,
2013-02-04 11:24:00,35.1,16.8,30.02,SW,225,2.3,2.3,47,0.00,BKN,,0.00,WeatherDisplay:10.37,2013-02-04 16:24:00,
2013-02-04 11:29:00,35.2,16.0,30.02,South,180,3.5,3.5,45,0.00,BKN,,0.00,WeatherDisplay:10.37,2013-02-04 16:29:00,
2013-02-04 11:34:00,35.2,15.5,30.01,South,180,3.5,3.5,44,0.00,BKN,,0.00,WeatherDisplay:10.37,2013-02-04 16:34:00,
2013-02-04 11:39:00,34.3,15.7,30.00,WSW,248,4.6,4.6,46,0.00,BKN,,0.00,WeatherDisplay:10.37,2013-02-04 16:39:00,
2013-02-04 11:44:00,34.0,14.8,30.01,SW,225,5.8,5.8,45,0.00,BKN,,0.00,WeatherDisplay:10.37,2013-02-04 16:44:00,
2013-02-04 11:49:00,34.9,16.2,30.01,South,180,4.6,4.6,46,0.00,BKN,,0.00,WeatherDisplay:10.37,2013-02-04 16:49:00,
2013-02-04 11:54:00,35.1,16.3,30.00,South,180,2.3,2.3,46,0.00,BKN,,0.00,WeatherDisplay:10.37,2013-02-04 16:54:00,
2013-02-04 11:59:00,35.8,16.5,30.00,NE,45,3.5,3.5,45,0.00,BKN,,0.00,WeatherDisplay:10.37,2013-02-04 16:59:00,
2013-02-04 12:04:00,35.2,16.5,29.99,SW,225,3.5,3.5,46,0.00,FEW,,0.00,WeatherDisplay:10.37,2013-02-04 17:04:00,
2013-02-04 12:09:00,35.4,16.7,29.99,East,90,4.6,4.6,46,0.00,FEW,,0.00,WeatherDisplay:10.37,2013-02-04 17:09:00,
2013-02-04 12:14:00,35.6,15.8,29.99,SW,225,5.8,5.8,44,0.00,FEW,,0.00,WeatherDisplay:10.37,2013-02-04 17:14:00,
2013-02-04 12:19:00,36.9,16.4,29.99,East,90,3.5,3.5,43,0.00,FEW,,0.00,WeatherDisplay:10.37,2013-02-04 17:19:00,
2013-02-04 12:24:00,37.4,16.4,29.99,SW,225,4.6,4.6,42,0.00,FEW,,0.00,WeatherDisplay:10.37,2013-02-04 17:24:00,
2013-02-04 12:29:00,37.8,16.7,29.99,SW,225,3.5,3.5,42,0.00,FEW,,0.00,WeatherDisplay:10.37,2013-02-04 17:29:00,
2013-02-04 12:34:00,37.4,16.4,29.98,SW,225,5.8,5.8,42,0.00,FEW,,0.00,WeatherDisplay:10.37,2013-02-04 17:34:00,
2013-02-04 12:39:00,37.8,16.7,29.98,SW,225,3.5,3.5,42,0.00,FEW,,0.00,WeatherDisplay:10.37,2013-02-04 17:39:00,
2013-02-04 12:44:00,38.1,17.0,29.98,South,180,5.8,5.8,42,0.00,FEW,,0.00,WeatherDisplay:10.37,2013-02-04 17:44:00,
2013-02-04 12:49:00,38.5,17.3,29.97,South,180,4.6,4.6,42,0.00,FEW,,0.00,WeatherDisplay:10.37,2013-02-04 17:49:00,
2013-02-04 12:54:00,38.1,16.5,29.96,SW,225,4.6,4.6,41,0.00,FEW,,0.00,WeatherDisplay:10.37,2013-02-04 17:54:00,
2013-02-04 12:59:00,38.5,16.8,29.96,SW,225,4.6,4.6,41,0.00,FEW,,0.00,WeatherDisplay:10.37,2013-02-04 17:59:00,
2013-02-04 13:04:00,38.3,16.6,29.97,SW,225,3.5,3.5,41,0.00,SCT,,0.00,WeatherDisplay:10.37,2013-02-04 18:04:00,
2013-02-04 13:09:00,38.1,17.0,29.96,South,180,3.5,3.5,42,0.00,SCT,,0.00,WeatherDisplay:10.37,2013-02-04 18:09:00,
2013-02-04 13:14:00,37.2,16.7,29.95,South,180,3.5,3.5,43,0.00,SCT,,0.00,WeatherDisplay:10.37,2013-02-04 18:14:00,
2013-02-04 13:19:00,36.7,16.3,29.95,South,180,4.6,4.6,43,0.00,SCT,,0.00,WeatherDisplay:10.37,2013-02-04 18:19:00,
2013-02-04 13:24:00,36.1,16.8,29.95,South,180,3.5,3.5,45,0.00,SCT,,0.00,WeatherDisplay:10.37,2013-02-04 18:24:00,
2013-02-04 13:29:00,36.5,16.6,29.95,East,90,3.5,3.5,44,0.00,SCT,,0.00,WeatherDisplay:10.37,2013-02-04 18:29:00,
2013-02-04 13:34:00,37.0,16.6,29.95,NE,45,2.3,2.3,43,0.00,SCT,,0.00,WeatherDisplay:10.37,2013-02-04 18:34:00,
2013-02-04 13:39:00,39.4,18.2,29.94,South,180,3.5,3.5,42,0.00,SCT,,0.00,WeatherDisplay:10.37,2013-02-04 18:39:00,
2013-02-04 13:44:00,40.3,17.8,29.94,South,180,4.6,4.6,40,0.00,SCT,,0.00,WeatherDisplay:10.37,2013-02-04 18:44:00,
2013-02-04 13:49:00,40.5,18.6,29.94,South,180,5.8,5.8,41,0.00,SCT,,0.00,WeatherDisplay:10.37,2013-02-04 18:49:00,
2013-02-04 13:54:00,39.4,17.0,29.94,South,180,3.5,3.5,40,0.00,SCT,,0.00,WeatherDisplay:10.37,2013-02-04 18:54:00,
2013-02-04 13:59:00,38.7,16.4,29.93,South,180,2.3,2.3,40,0.00,SCT,,0.00,WeatherDisplay:10.37,2013-02-04 18:59:00,
2013-02-04 14:04:00,38.1,16.5,29.93,SE,135,3.5,3.5,41,0.00,OVC,,0.00,WeatherDisplay:10.37,2013-02-04 19:04:00,
2013-02-04 14:09:00,38.1,16.5,29.93,SE,135,3.5,3.5,41,0.00,OVC,,0.00,WeatherDisplay:10.37,2013-02-04 19:09:00,
2013-02-04 14:14:00,38.1,16.5,29.93,South,180,3.5,3.5,41,0.00,OVC,,0.00,WeatherDisplay:10.37,2013-02-04 19:14:00,
2013-02-04 14:20:00,37.9,16.9,29.93,SE,135,3.5,3.5,42,0.00,OVC,,0.00,WeatherDisplay:10.37,2013-02-04 19:20:00,
2013-02-04 14:25:00,38.1,17.6,29.93,South,180,3.5,3.5,43,0.00,OVC,,0.00,WeatherDisplay:10.37,2013-02-04 19:25:00,
2013-02-04 14:30:00,38.3,17.2,29.92,South,180,1.1,1.6,42,0.00,OVC,,0.00,WeatherDisplay:10.37,2013-02-04 19:30:00,
2013-02-04 14:35:00,38.1,17.6,29.92,SW,225,3.5,3.5,43,0.00,OVC,,0.00,WeatherDisplay:10.37,2013-02-04 19:35:00,
2013-02-04 14:40:00,38.1,17.6,29.92,South,180,5.8,5.8,43,0.00,OVC,,0.00,WeatherDisplay:10.37,2013-02-04 19:40:00,
2013-02-04 14:45:00,38.1,17.0,29.92,SE,135,3.5,3.5,42,0.00,OVC,,0.00,WeatherDisplay:10.37,2013-02-04 19:45:00,
2013-02-04 14:50:00,38.1,17.6,29.91,East,90,3.5,3.5,43,0.00,OVC,,0.00,WeatherDisplay:10.37,2013-02-04 19:50:00,
2013-02-04 14:55:00,38.1,17.6,29.91,North,0,3.5,3.5,43,0.00,OVC,,0.00,WeatherDisplay:10.37,2013-02-04 19:55:00,
2013-02-04 15:00:00,37.9,17.4,29.91,NE,45,3.5,3.5,43,0.00,OVC,,0.00,WeatherDisplay:10.37,2013-02-04 20:00:00,
2013-02-04 15:05:00,37.6,17.6,29.91,SE,135,3.5,3.5,44,0.00,OVC,,0.00,WeatherDisplay:10.37,2013-02-04 20:05:00,
2013-02-04 15:10:00,37.4,17.4,29.91,SSE,158,3.5,3.5,44,0.00,OVC,,0.00,WeatherDisplay:10.37,2013-02-04 20:10:00,
2013-02-04 15:15:00,37.0,17.1,29.91,NE,45,5.8,5.8,44,0.00,OVC,,0.00,WeatherDisplay:10.37,2013-02-04 20:15:00,
2013-02-04 15:20:00,36.9,18.0,29.91,North,0,2.3,0.0,46,0.00,OVC,,0.00,WeatherDisplay:10.37,2013-02-04 20:20:00,
2013-02-04 15:25:00,36.7,17.3,29.91,NE,45,3.5,3.5,45,0.00,OVC,,0.00,WeatherDisplay:10.37,2013-02-04 20:25:00,
2013-02-04 15:30:00,36.7,17.3,29.91,NE,45,3.5,3.5,45,0.00,OVC,,0.00,WeatherDisplay:10.37,2013-02-04 20:30:00,
2013-02-04 15:35:00,36.7,17.8,29.91,NE,45,3.5,3.5,46,0.00,OVC,,0.00,WeatherDisplay:10.37,2013-02-04 20:35:00,
2013-02-04 15:40:00,37.0,18.1,29.91,North,0,3.5,3.5,46,0.00,OVC,,0.00,WeatherDisplay:10.37,2013-02-04 20:40:00,
2013-02-04 15:45:00,37.0,18.1,29.91,SW,225,3.5,0.0,46,0.00,OVC,,0.00,WeatherDisplay:10.37,2013-02-04 20:45:00,
2013-02-04 15:50:00,37.2,17.8,29.92,NE,45,3.5,3.5,45,0.00,OVC,,0.00,WeatherDisplay:10.37,2013-02-04 20:50:00,
2013-02-04 15:55:00,37.0,17.1,29.92,NE,45,3.5,0.0,44,0.00,OVC,,0.00,WeatherDisplay:10.37,2013-02-04 20:55:00,
2013-02-04 16:00:00,37.0,18.1,29.91,NE,45,3.5,0.0,46,0.00,OVC,,0.00,WeatherDisplay:10.37,2013-02-04 21:00:00,
2013-02-04 16:05:00,37.4,18.5,29.91,NE,45,1.1,1.1,46,0.00,OVC,,0.00,WeatherDisplay:10.37,2013-02-04 21:05:00,
2013-02-04 16:10:00,37.9,18.5,29.91,SW,225,2.3,0.0,45,0.00,OVC,,0.00,WeatherDisplay:10.37,2013-02-04 21:10:00,
2013-02-04 16:15:00,38.1,18.6,29.92,SE,135,3.5,3.5,45,0.00,OVC,,0.00,WeatherDisplay:10.37,2013-02-04 21:15:00,
2013-02-04 16:20:00,37.4,18.5,29.91,NE,45,3.5,3.5,46,0.00,OVC,,0.00,WeatherDisplay:10.37,2013-02-04 21:20:00,
2013-02-04 16:25:00,36.7,19.8,29.91,NE,45,3.5,3.5,50,0.00,OVC,,0.00,WeatherDisplay:10.37,2013-02-04 21:25:00,
2013-02-04 16:30:00,36.3,19.4,29.91,SE,135,1.1,0.0,50,0.00,OVC,,0.00,WeatherDisplay:10.37,2013-02-04 21:30:00,
2013-02-04 16:35:00,36.3,19.4,29.91,NE,45,1.1,1.6,50,0.00,OVC,,0.00,WeatherDisplay:10.37,2013-02-04 21:35:00,
2013-02-04 16:40:00,36.1,20.2,29.91,East,90,2.3,0.0,52,0.00,OVC,,0.00,WeatherDisplay:10.37,2013-02-04 21:40:00,
2013-02-04 16:45:00,36.0,19.6,29.91,NE,45,1.1,0.0,51,0.00,OVC,,0.00,WeatherDisplay:10.37,2013-02-04 21:45:00,
2013-02-04 16:50:00,35.6,20.6,29.90,NE,45,3.5,3.5,54,0.00,OVC,,0.00,WeatherDisplay:10.37,2013-02-04 21:50:00,
2013-02-04 16:55:00,35.4,20.8,29.91,NE,45,3.5,3.5,55,0.00,OVC,,0.00,WeatherDisplay:10.37,2013-02-04 21:55:00,
2013-02-04 17:00:00,35.2,20.7,29.90,NE,45,2.3,2.3,55,0.00,OVC,,0.00,WeatherDisplay:10.37,2013-02-04 22:00:00,
2013-02-04 17:05:00,35.1,20.1,29.90,NE,45,3.5,3.5,54,0.00,OVC,,0.00,WeatherDisplay:10.37,2013-02-04 22:05:00,
2013-02-04 17:10:00,35.1,20.1,29.90,NE,45,1.1,0.0,54,0.00,OVC,,0.00,WeatherDisplay:10.37,2013-02-04 22:10:00,
2013-02-04 17:15:00,34.9,20.3,29.90,NE,45,2.3,2.3,55,0.00,OVC,,0.00,WeatherDisplay:10.37,2013-02-04 22:15:00,
2013-02-04 17:20:00,34.7,19.7,29.90,NE,45,3.5,3.5,54,0.00,OVC,,0.00,WeatherDisplay:10.37,2013-02-04 22:20:00,
2013-02-04 17:25:00,34.7,20.6,29.90,NE,45,2.3,0.0,56,0.00,OVC,,0.00,WeatherDisplay:10.37,2013-02-04 22:25:00,
2013-02-04 17:30:00,34.5,20.4,29.90,NE,45,1.1,1.1,56,0.00,OVC,,0.00,WeatherDisplay:10.37,2013-02-04 22:30:00,
2013-02-04 17:35:00,34.3,20.3,29.89,NE,45,1.1,1.1,56,0.00,OVC,,0.00,WeatherDisplay:10.37,2013-02-04 22:35:00,
2013-02-04 17:40:00,34.3,21.1,29.89,NE,45,3.5,3.5,58,0.00,OVC,,0.00,WeatherDisplay:10.37,2013-02-04 22:40:00,
2013-02-04 17:45:00,34.2,20.5,29.89,NE,45,3.5,3.5,57,0.00,OVC,,0.00,WeatherDisplay:10.37,2013-02-04 22:45:00,
2013-02-04 17:50:00,34.2,20.9,29.90,NE,45,3.5,3.5,58,0.00,OVC,,0.00,WeatherDisplay:10.37,2013-02-04 22:50:00,
2013-02-04 17:55:00,34.2,20.9,29.89,NE,45,2.3,2.3,58,0.00,OVC,,0.00,WeatherDisplay:10.37,2013-02-04 22:55:00,
2013-02-04 18:00:00,34.0,20.7,29.90,East,90,2.3,2.3,58,0.00,OVC,,0.00,WeatherDisplay:10.37,2013-02-04 23:00:00,
2013-02-04 18:05:00,34.0,20.3,29.90,North,0,2.3,0.0,57,0.00,OVC,,0.00,WeatherDisplay:10.37,2013-02-04 23:05:00,
2013-02-04 18:10:00,34.0,20.7,29.90,NE,45,2.3,2.3,58,0.00,OVC,,0.00,WeatherDisplay:10.37,2013-02-04 23:10:00,
2013-02-04 18:15:00,33.8,20.2,29.90,East,90,1.1,1.1,57,0.00,OVC,,0.00,WeatherDisplay:10.37,2013-02-04 23:15:00,
2013-02-04 18:20:00,33.8,20.2,29.90,North,0,1.1,0.0,57,0.00,OVC,,0.00,WeatherDisplay:10.37,2013-02-04 23:20:00,
2013-02-04 18:25:00,33.8,20.6,29.90,ENE,68,3.5,3.5,58,0.00,OVC,,0.00,WeatherDisplay:10.37,2013-02-04 23:25:00,
2013-02-04 18:30:00,34.0,20.7,29.89,NE,45,5.8,5.8,58,0.00,OVC,,0.00,WeatherDisplay:10.37,2013-02-04 23:30:00,
2013-02-04 18:35:00,34.0,20.7,29.89,NE,45,3.5,0.0,58,0.00,OVC,,0.00,WeatherDisplay:10.37,2013-02-04 23:35:00,
2013-02-04 18:40:00,34.0,19.9,29.90,NE,45,2.3,2.3,56,0.00,OVC,,0.00,WeatherDisplay:10.37,2013-02-04 23:40:00,
2013-02-04 18:45:00,34.0,20.3,29.90,NE,45,3.5,3.5,57,0.00,OVC,,0.00,WeatherDisplay:10.37,2013-02-04 23:45:00,
2013-02-04 18:50:00,34.0,20.7,29.89,South,180,5.8,5.8,58,0.00,OVC,,0.00,WeatherDisplay:10.37,2013-02-04 23:50:00,
2013-02-04 18:55:00,33.8,21.0,29.90,SE,135,1.1,0.0,59,0.00,OVC,,0.00,WeatherDisplay:10.37,2013-02-04 23:55:00,
2013-02-04 19:00:00,33.8,21.4,29.89,SE,135,1.1,0.0,60,0.00,OVC,,0.00,WeatherDisplay:10.37,2013-02-05 00:00:00,
2013-02-04 19:05:00,33.8,21.8,29.89,North,0,1.1,0.0,61,0.00,OVC,,0.00,WeatherDisplay:10.37,2013-02-05 00:05:00,
2013-02-04 19:10:00,33.6,21.6,29.89,North,0,0.0,0.0,61,0.00,OVC,,0.00,WeatherDisplay:10.37,2013-02-05 00:10:00,
2013-02-04 19:15:00,33.6,21.6,29.89,NE,45,1.1,1.1,61,0.00,OVC,,0.00,WeatherDisplay:10.37,2013-02-05 00:15:00,
2013-02-04 19:20:00,33.6,21.2,29.89,NE,45,2.3,0.0,60,0.00,OVC,,0.00,WeatherDisplay:10.37,2013-02-05 00:20:00,
2013-02-04 19:25:00,33.6,21.2,29.89,NE,45,2.3,2.3,60,0.00,OVC,,0.00,WeatherDisplay:10.37,2013-02-05 00:25:00,
2013-02-04 19:30:00,33.6,20.8,29.89,NE,45,1.1,0.0,59,0.00,OVC,,0.00,WeatherDisplay:10.37,2013-02-05 00:30:00,
2013-02-04 19:35:00,33.4,20.6,29.89,NE,45,1.1,0.0,59,0.00,OVC,,0.00,WeatherDisplay:10.37,2013-02-05 00:35:00,
2013-02-04 19:40:00,33.6,20.8,29.89,East,90,1.1,0.0,59,0.00,OVC,,0.00,WeatherDisplay:10.37,2013-02-05 00:40:00,
2013-02-04 19:45:00,33.6,20.4,29.89,NE,45,3.5,0.0,58,0.00,OVC,,0.00,WeatherDisplay:10.37,2013-02-05 00:45:00,
2013-02-04 19:50:00,33.6,20.4,29.88,NE,45,2.3,2.3,58,0.00,OVC,,0.00,WeatherDisplay:10.37,2013-02-05 00:50:00,
2013-02-04 19:55:00,33.6,20.4,29.89,NE,45,1.1,0.0,58,0.00,OVC,,0.00,WeatherDisplay:10.37,2013-02-05 00:55:00,
2013-02-04 20:00:00,33.6,20.8,29.89,NE,45,0.0,0.0,59,0.00,OVC,,0.00,WeatherDisplay:10.37,2013-02-05 01:00:00,
2013-02-04 20:05:00,33.4,20.6,29.88,NE,45,1.1,0.0,59,0.00,OVC,,0.00,WeatherDisplay:10.37,2013-02-05 01:05:00,
2013-02-04 20:10:00,33.4,20.6,29.88,NE,45,2.3,2.3,59,0.00,OVC,,0.00,WeatherDisplay:10.37,2013-02-05 01:10:00,
2013-02-04 20:15:00,33.4,21.0,29.89,NE,45,1.6,0.0,60,0.00,OVC,,0.00,WeatherDisplay:10.37,2013-02-05 01:15:00,
2013-02-04 20:20:00,33.4,21.0,29.89,NE,45,1.1,0.0,60,0.00,OVC,,0.00,WeatherDisplay:10.37,2013-02-05 01:20:00,
2013-02-04 20:25:00,33.4,21.0,29.89,NE,45,0.0,0.0,60,0.00,OVC,,0.00,WeatherDisplay:10.37,2013-02-05 01:25:00,
2013-02-04 20:30:00,33.4,21.0,29.89,NE,45,0.0,0.0,60,0.00,OVC,,0.00,WeatherDisplay:10.37,2013-02-05 01:30:00,
2013-02-04 20:35:00,33.4,21.0,29.89,NW,315,0.0,0.0,60,0.00,OVC,,0.00,WeatherDisplay:10.37,2013-02-05 01:35:00,
2013-02-04 20:40:00,33.3,20.9,29.89,NW,315,0.0,0.0,60,0.00,OVC,,0.00,WeatherDisplay:10.37,2013-02-05 01:40:00,
2013-02-04 20:45:00,33.4,21.4,29.89,NE,45,2.3,2.3,61,0.00,OVC,,0.00,WeatherDisplay:10.37,2013-02-05 01:45:00,
2013-02-04 20:50:00,33.4,21.0,29.89,NE,45,3.5,3.5,60,0.00,OVC,,0.00,WeatherDisplay:10.37,2013-02-05 01:50:00,
2013-02-04 20:55:00,33.4,21.8,29.89,NE,45,1.1,0.0,62,0.00,OVC,,0.00,WeatherDisplay:10.37,2013-02-05 01:55:00,
2013-02-04 21:00:00,33.4,21.4,29.89,North,0,0.0,0.0,61,0.00,OVC,,0.00,WeatherDisplay:10.37,2013-02-05 02:00:00,
2013-02-04 21:05:00,33.6,21.6,29.89,NW,315,1.1,0.0,61,0.00,-SN,,0.00,WeatherDisplay:10.37,2013-02-05 02:05:00,
2013-02-04 21:10:00,33.4,21.8,29.89,North,0,1.1,0.0,62,0.00,-SN,,0.00,WeatherDisplay:10.37,2013-02-05 02:10:00,
2013-02-04 21:15:00,33.4,21.8,29.89,South,180,2.3,2.3,62,0.00,-SN,,0.00,WeatherDisplay:10.37,2013-02-05 02:15:00,
2013-02-04 21:20:00,33.4,22.9,29.89,SW,225,1.1,1.1,65,0.00,-SN,,0.00,WeatherDisplay:10.37,2013-02-05 02:20:00,
2013-02-04 21:25:00,33.3,23.5,29.89,East,90,1.1,0.0,67,0.00,-SN,,0.00,WeatherDisplay:10.37,2013-02-05 02:25:00,
2013-02-04 21:30:00,33.3,24.5,29.88,NE,45,2.3,0.0,70,0.00,-SN,,0.00,WeatherDisplay:10.37,2013-02-05 02:30:00,
2013-02-04 21:35:00,32.9,24.9,29.88,NE,45,1.1,0.0,72,0.00,-SN,,0.00,WeatherDisplay:10.37,2013-02-05 02:35:00,
2013-02-04 21:40:00,32.7,25.0,29.88,NE,45,1.1,0.0,73,0.00,-SN,,0.00,WeatherDisplay:10.37,2013-02-05 02:40:00,
2013-02-04 21:45:00,32.7,25.0,29.88,NE,45,1.1,0.0,73,0.00,-SN,,0.00,WeatherDisplay:10.37,2013-02-05 02:45:00,
2013-02-04 21:50:00,32.5,25.5,29.88,NE,45,1.1,0.0,75,0.00,-SN,,0.00,WeatherDisplay:10.37,2013-02-05 02:50:00,
2013-02-04 21:55:00,32.5,25.5,29.88,NE,45,0.0,0.0,75,0.00,-SN,,0.00,WeatherDisplay:10.37,2013-02-05 02:55:00,
2013-02-04 22:00:00,32.4,25.3,29.87,NE,45,1.1,0.0,75,0.00,-SN,,0.00,WeatherDisplay:10.37,2013-02-05 03:00:00,
2013-02-04 22:05:00,32.2,25.1,29.87,North,0,0.0,0.0,75,0.00,-SN,,0.00,WeatherDisplay:10.37,2013-02-05 03:05:00,
2013-02-04 22:10:00,32.2,25.1,29.87,North,0,0.0,0.0,75,0.00,-SN,,0.00,WeatherDisplay:10.37,2013-02-05 03:10:00,
2013-02-04 22:15:00,32.0,25.0,29.87,North,0,0.0,0.0,75,0.00,-SN,,0.00,WeatherDisplay:10.37,2013-02-05 03:15:00,
2013-02-04 22:20:00,32.0,25.6,29.86,NE,45,1.1,1.1,77,0.00,-SN,,0.00,WeatherDisplay:10.37,2013-02-05 03:20:00,
2013-02-04 22:25:00,32.0,25.9,29.86,NW,315,0.0,0.0,78,0.00,-SN,,0.00,WeatherDisplay:10.37,2013-02-05 03:25:00,
2013-02-04 22:30:00,31.8,25.4,29.86,NW,315,0.0,0.0,77,0.00,-SN,,0.00,WeatherDisplay:10.37,2013-02-05 03:30:00,
2013-02-04 22:35:00,31.8,25.7,29.86,NE,45,1.1,0.0,78,0.00,OVC,,0.00,WeatherDisplay:10.37,2013-02-05 03:35:00,
2013-02-04 22:40:00,31.8,26.0,29.86,NE,45,1.1,0.0,79,0.00,OVC,,0.00,WeatherDisplay:10.37,2013-02-05 03:40:00,
2013-02-04 22:45:00,31.8,26.0,29.86,North,0,1.1,0.0,79,0.00,OVC,,0.00,WeatherDisplay:10.37,2013-02-05 03:45:00,
2013-02-04 22:50:00,32.0,26.2,29.86,North,8,0.0,2.0,79,0.00,OVC,,0.00,WeatherDisplay:10.37,2013-02-05 03:50:00,
2013-02-04 22:55:00,32.0,26.2,29.86,North,0,1.1,0.0,79,0.00,OVC,,0.00,WeatherDisplay:10.37,2013-02-05 03:55:00,
2013-02-04 23:00:00,32.0,26.2,29.86,North,0,0.0,0.0,79,0.00,OVC,,0.00,WeatherDisplay:10.37,2013-02-05 04:00:00,
2013-02-04 23:05:00,32.0,26.5,29.86,North,0,1.1,0.0,80,0.00,OVC,,0.00,WeatherDisplay:10.37,2013-02-05 04:05:00,
2013-02-04 23:10:00,32.0,26.5,29.86,North,0,1.1,0.0,80,0.00,OVC,,0.00,WeatherDisplay:10.37,2013-02-05 04:10:00,
2013-02-04 23:15:00,32.0,26.5,29.86,North,350,0.0,2.0,80,0.00,OVC,,0.00,WeatherDisplay:10.37,2013-02-05 04:15:00,
2013-02-04 23:20:00,32.0,26.5,29.86,South,180,0.0,0.0,80,0.00,OVC,,0.00,WeatherDisplay:10.37,2013-02-05 04:20:00,
2013-02-04 23:25:00,31.8,26.4,29.85,South,180,0.0,0.0,80,0.00,OVC,,0.00,WeatherDisplay:10.37,2013-02-05 04:25:00,
2013-02-04 23:30:00,31.5,26.0,29.85,North,0,0.0,0.0,80,0.00,OVC,,0.00,WeatherDisplay:10.37,2013-02-05 04:30:00,
2013-02-04 23:35:00,31.3,26.1,29.84,NE,45,1.1,0.0,81,0.00,OVC,,0.00,WeatherDisplay:10.37,2013-02-05 04:35:00,
2013-02-04 23:40:00,31.1,26.2,29.84,NE,45,1.1,1.1,82,0.00,OVC,,0.00,WeatherDisplay:10.37,2013-02-05 04:40:00,
2013-02-04 23:45:00,31.1,26.5,29.84,North,0,3.5,3.5,83,0.00,OVC,,0.00,WeatherDisplay:10.37,2013-02-05 04:45:00,
2013-02-04 23:50:00,31.1,26.5,29.85,NW,315,1.1,0.0,83,0.00,OVC,,0.00,WeatherDisplay:10.37,2013-02-05 04:50:00,
2013-02-04 23:55:00,31.1,26.5,29.85,NE,45,2.3,2.3,83,0.00,OVC,,0.00,WeatherDisplay:10.37,2013-02-05 04:55:00,